| time (UTC) | temp F | wind direction | speed MPH | gust MPH | rain 1hr in | rain 24hr in | rain mn in | humidity % | barometer mb |
| 20260504151042 | 60 | 267 | 12.0 | 20.0 | 0.00 | 0.00 | 0.00 | 57 | 1011.7 |
| 20260504150541 | 59 | 246 | 11.0 | 20.0 | 0.00 | 0.00 | 0.00 | 58 | 1011.6 |
| 20260504141041 | 57 | 269 | 11.0 | 16.0 | 0.00 | 0.00 | 0.00 | 62 | 1012.0 |
| 20260504140544 | 57 | 242 | 10.0 | 16.0 | 0.00 | 0.00 | 0.00 | 63 | 1012.1 |
| 20260504130544 | 55 | 222 | 10.0 | 20.0 | 0.00 | 0.00 | 0.00 | 65 | 1012.4 |
| 20260504110543 | 50 | 234 | 1.0 | 8.0 | 0.00 | 0.00 | 0.00 | 75 | 1012.4 |
| 20260504100541 | 44 | 274 | 0.0 | 1.0 | 0.00 | 0.00 | 0.00 | 72 | 1012.3 |
| 20260504081549 | 45 | 257 | 0.0 | 1.0 | 0.00 | 0.00 | 0.00 | 66 | 1011.9 |
| 20260504081040 | 46 | 257 | 0.0 | 1.0 | 0.00 | 0.00 | 0.00 | 66 | 1011.9 |
| 20260504080542 | 46 | 257 | 0.0 | 1.0 | 0.00 | 0.00 | 0.00 | 64 | 1011.9 |
| 20260504050543 | 44 | 0 | 0.0 | 1.0 | 0.00 | 0.00 | 0.00 | 71 | 1011.1 |
| 20260504045543 | 44 | 198 | 0.0 | 1.0 | 0.00 | 0.00 | 0.00 | 72 | 1011.0 |
| 20260504045043 | 45 | 0 | 0.0 | 1.0 | 0.00 | 0.00 | 0.00 | 72 | 1011.1 |
| 20260504044559 | 46 | 0 | 0.0 | 1.0 | 0.00 | 0.00 | 0.00 | 73 | 1011.1 |
| 20260504044043 | 46 | 0 | 0.0 | 1.0 | 0.00 | 0.00 | 0.00 | 73 | 1011.0 |
| 20260504043543 | 46 | 0 | 0.0 | 1.0 | 0.00 | 0.00 | 0.00 | 73 | 1011.0 |
| 20260504043050 | 47 | 0 | 0.0 | 1.0 | 0.00 | 0.00 | 0.00 | 73 | 1011.1 |
| 20260504042545 | 46 | 187 | 0.0 | 1.0 | 0.00 | 0.00 | 0.00 | 70 | 1011.0 |
| 20260504042048 | 47 | 0 | 0.0 | 1.0 | 0.00 | 0.00 | 0.00 | 71 | 1011.1 |
| 20260504041553 | 47 | 288 | 0.0 | 1.0 | 0.00 | 0.00 | 0.00 | 73 | 1011.1 |
| 20260504041041 | 47 | 0 | 0.0 | 1.0 | 0.00 | 0.00 | 0.00 | 75 | 1011.0 |
| 20260504040540 | 47 | 289 | 0.0 | 1.0 | 0.00 | 0.00 | 0.00 | 77 | 1011.0 |
| 20260504040052 | 48 | 0 | 0.0 | 1.0 | 0.00 | 0.00 | 0.00 | 77 | 1010.9 |
| 20260504035540 | 48 | 297 | 0.0 | 1.0 | 0.00 | 0.00 | 0.00 | 79 | 1010.8 |
| 20260504035044 | 48 | 271 | 0.0 | 2.0 | 0.00 | 0.00 | 0.00 | 80 | 1010.8 |
| 20260504034606 | 48 | 0 | 0.0 | 2.0 | 0.00 | 0.00 | 0.00 | 81 | 1010.9 |
| 20260504034040 | 48 | 254 | 1.0 | 2.0 | 0.00 | 0.00 | 0.00 | 80 | 1010.9 |
| 20260504033544 | 47 | 246 | 1.0 | 2.0 | 0.00 | 0.00 | 0.00 | 77 | 1011.0 |
| 20260504033049 | 47 | 244 | 0.0 | 2.0 | 0.00 | 0.00 | 0.00 | 75 | 1010.9 |
| 20260504032543 | 48 | 252 | 0.0 | 2.0 | 0.00 | 0.00 | 0.00 | 74 | 1010.9 |
| 20260504032045 | 48 | 0 | 0.0 | 1.0 | 0.00 | 0.00 | 0.00 | 74 | 1010.7 |
| 20260504031552 | 48 | 229 | 0.0 | 1.0 | 0.00 | 0.00 | 0.00 | 71 | 1010.8 |
| 20260504031044 | 49 | 191 | 0.0 | 1.0 | 0.00 | 0.00 | 0.00 | 61 | 1010.7 |
| 20260504030540 | 49 | 0 | 0.0 | 1.0 | 0.00 | 0.00 | 0.00 | 57 | 1010.8 |
| 20260504030050 | 50 | 0 | 0.0 | 1.0 | 0.00 | 0.00 | 0.00 | 52 | 1010.8 |
| 20260504025540 | 50 | 0 | 0.0 | 1.0 | 0.00 | 0.00 | 0.00 | 51 | 1010.8 |
| 20260504025043 | 50 | 0 | 0.0 | 1.0 | 0.00 | 0.00 | 0.00 | 51 | 1010.7 |
| 20260504024552 | 50 | 0 | 0.0 | 1.0 | 0.00 | 0.00 | 0.00 | 51 | 1010.8 |
| 20260504024045 | 50 | 261 | 0.0 | 1.0 | 0.00 | 0.00 | 0.00 | 52 | 1010.8 |
| 20260504023543 | 50 | 0 | 0.0 | 1.0 | 0.00 | 0.00 | 0.00 | 53 | 1010.8 |
| 20260504023051 | 50 | 0 | 0.0 | 1.0 | 0.00 | 0.00 | 0.00 | 57 | 1010.9 |
| 20260504022540 | 50 | 0 | 0.0 | 1.0 | 0.00 | 0.00 | 0.00 | 56 | 1010.8 |
| 20260504022043 | 50 | 0 | 0.0 | 1.0 | 0.00 | 0.00 | 0.00 | 57 | 1011.0 |
| 20260504021556 | 51 | 261 | 0.0 | 1.0 | 0.00 | 0.00 | 0.00 | 54 | 1010.9 |
| 20260504021039 | 51 | 261 | 0.0 | 1.0 | 0.00 | 0.00 | 0.00 | 52 | 1010.8 |
| 20260504020540 | 51 | 261 | 0.0 | 1.0 | 0.00 | 0.00 | 0.00 | 51 | 1010.7 |
| 20260504020056 | 51 | 260 | 0.0 | 1.0 | 0.00 | 0.00 | 0.00 | 50 | 1010.7 |
| 20260504015544 | 52 | 0 | 0.0 | 1.0 | 0.00 | 0.00 | 0.00 | 49 | 1010.8 |
| 20260504015041 | 52 | 261 | 0.0 | 1.0 | 0.00 | 0.00 | 0.00 | 46 | 1010.9 |
| 20260504014606 | 53 | 261 | 0.0 | 1.0 | 0.00 | 0.00 | 0.00 | 46 | 1010.8 |
| 20260504014041 | 53 | 261 | 0.0 | 1.0 | 0.00 | 0.00 | 0.00 | 44 | 1010.6 |
| 20260504013543 | 53 | 0 | 0.0 | 1.0 | 0.00 | 0.00 | 0.00 | 43 | 1010.7 |
| 20260504013052 | 53 | 0 | 0.0 | 2.0 | 0.00 | 0.00 | 0.00 | 43 | 1010.6 |
| 20260504012539 | 54 | 261 | 0.0 | 2.0 | 0.00 | 0.00 | 0.00 | 42 | 1010.5 |
| 20260504012043 | 54 | 0 | 0.0 | 1.0 | 0.00 | 0.00 | 0.00 | 42 | 1010.5 |
| 20260504011559 | 54 | 261 | 0.0 | 1.0 | 0.00 | 0.00 | 0.00 | 41 | 1010.4 |
| 20260504011042 | 54 | 0 | 0.0 | 1.0 | 0.00 | 0.00 | 0.00 | 40 | 1010.3 |
| 20260504010543 | 55 | 261 | 0.0 | 1.0 | 0.00 | 0.00 | 0.00 | 40 | 1010.2 |
| 20260504010059 | 55 | 261 | 0.0 | 1.0 | 0.00 | 0.00 | 0.00 | 39 | 1010.3 |
| 20260504005540 | 55 | 261 | 0.0 | 1.0 | 0.00 | 0.00 | 0.00 | 39 | 1010.2 |
| 20260504005040 | 55 | 261 | 0.0 | 1.0 | 0.00 | 0.00 | 0.00 | 38 | 1010.0 |
| 20260504004552 | 55 | 261 | 0.0 | 1.0 | 0.00 | 0.00 | 0.00 | 38 | 1010.0 |
| 20260504004041 | 55 | 261 | 0.0 | 1.0 | 0.00 | 0.00 | 0.00 | 38 | 1010.0 |
| 20260504003541 | 55 | 0 | 0.0 | 1.0 | 0.00 | 0.00 | 0.00 | 37 | 1009.9 |
| 20260504003051 | 55 | 0 | 0.0 | 1.0 | 0.00 | 0.00 | 0.00 | 37 | 1009.9 |
| 20260504002543 | 56 | 265 | 0.0 | 1.0 | 0.00 | 0.00 | 0.00 | 37 | 1009.8 |
| 20260504002043 | 56 | 0 | 0.0 | 1.0 | 0.00 | 0.00 | 0.00 | 38 | 1009.9 |
| 20260504001547 | 56 | 266 | 0.0 | 1.0 | 0.00 | 0.00 | 0.00 | 36 | 1009.7 |
| 20260504001042 | 56 | 0 | 0.0 | 1.0 | 0.00 | 0.00 | 0.00 | 35 | 1009.6 |
| 20260504000542 | 56 | 0 | 0.0 | 1.0 | 0.00 | 0.00 | 0.00 | 36 | 1009.5 |
| 20260504000051 | 56 | 0 | 0.0 | 2.0 | 0.00 | 0.00 | 0.00 | 35 | 1009.5 |
| 20260503235543 | 57 | 0 | 0.0 | 2.0 | 0.00 | 0.00 | 0.00 | 33 | 1009.5 |
| 20260503235043 | 57 | 360 | 0.0 | 2.0 | 0.00 | 0.00 | 0.00 | 33 | 1009.3 |
| 20260503234550 | 57 | 295 | 0.0 | 2.0 | 0.00 | 0.00 | 0.00 | 33 | 1009.1 |
| 20260503234044 | 57 | 292 | 0.0 | 8.0 | 0.00 | 0.00 | 0.00 | 33 | 1009.2 |
| 20260503233541 | 57 | 303 | 1.0 | 8.0 | 0.00 | 0.00 | 0.00 | 33 | 1009.1 |
| 20260503233052 | 57 | 317 | 1.0 | 8.0 | 0.00 | 0.00 | 0.00 | 32 | 1008.9 |
| 20260503232541 | 57 | 271 | 2.0 | 8.0 | 0.00 | 0.00 | 0.00 | 32 | 1009.1 |
| 20260503232043 | 57 | 316 | 0.0 | 11.0 | 0.00 | 0.00 | 0.00 | 31 | 1009.0 |
| 20260503231558 | 57 | 293 | 3.0 | 11.0 | 0.00 | 0.00 | 0.00 | 32 | 1009.0 |
| 20260503231043 | 58 | 270 | 4.0 | 14.0 | 0.00 | 0.00 | 0.00 | 31 | 1008.9 |
| 20260503230544 | 58 | 266 | 5.0 | 14.0 | 0.00 | 0.00 | 0.00 | 30 | 1009.0 |
| 20260503230059 | 58 | 304 | 6.0 | 17.0 | 0.00 | 0.00 | 0.00 | 30 | 1008.8 |
| 20260503225621 | 58 | 274 | 7.0 | 17.0 | 0.00 | 0.00 | 0.00 | 31 | 1008.8 |
| 20260503225043 | 58 | 293 | 9.0 | 17.0 | 0.00 | 0.00 | 0.00 | 30 | 1008.7 |
| 20260503224551 | 59 | 287 | 4.0 | 12.0 | 0.00 | 0.00 | 0.00 | 30 | 1008.7 |
| 20260503224043 | 59 | 297 | 7.0 | 13.0 | 0.00 | 0.00 | 0.00 | 30 | 1008.6 |
| 20260503223542 | 59 | 296 | 8.0 | 15.0 | 0.00 | 0.00 | 0.00 | 31 | 1008.6 |
| 20260503223055 | 59 | 323 | 6.0 | 15.0 | 0.00 | 0.00 | 0.00 | 31 | 1008.6 |
| 20260503222539 | 59 | 360 | 8.0 | 16.0 | 0.00 | 0.00 | 0.00 | 31 | 1008.8 |
| 20260503222041 | 58 | 284 | 10.0 | 19.0 | 0.00 | 0.00 | 0.00 | 31 | 1008.7 |
| 20260503221553 | 58 | 323 | 5.0 | 19.0 | 0.00 | 0.00 | 0.00 | 32 | 1008.7 |
| 20260503221044 | 58 | 302 | 7.0 | 18.0 | 0.00 | 0.00 | 0.00 | 32 | 1008.8 |
| 20260503220543 | 58 | 335 | 10.0 | 20.0 | 0.00 | 0.00 | 0.00 | 32 | 1008.7 |
| 20260503220055 | 58 | 80 | 8.0 | 20.0 | 0.00 | 0.00 | 0.00 | 32 | 1008.6 |
| 20260503215543 | 58 | 298 | 7.0 | 15.0 | 0.00 | 0.00 | 0.00 | 33 | 1008.7 |
| 20260503215044 | 58 | 279 | 7.0 | 16.0 | 0.00 | 0.00 | 0.00 | 33 | 1008.5 |
| 20260503214557 | 58 | 23 | 8.0 | 16.0 | 0.00 | 0.00 | 0.00 | 34 | 1008.6 |
| 20260503214043 | 58 | 267 | 10.0 | 16.0 | 0.00 | 0.00 | 0.00 | 34 | 1008.8 |
| 20260503213542 | 58 | 284 | 9.0 | 16.0 | 0.00 | 0.00 | 0.00 | 34 | 1008.7 |
| 20260503213101 | 58 | 310 | 8.0 | 20.0 | 0.00 | 0.00 | 0.00 | 34 | 1008.5 |
| 20260503212543 | 58 | 308 | 6.0 | 20.0 | 0.00 | 0.00 | 0.00 | 34 | 1008.5 |
| 20260503212044 | 58 | 317 | 8.0 | 20.0 | 0.00 | 0.00 | 0.00 | 33 | 1008.4 |
| 20260503211548 | 57 | 252 | 8.0 | 24.0 | 0.00 | 0.00 | 0.00 | 33 | 1008.5 |
| 20260503211041 | 57 | 292 | 15.0 | 28.0 | 0.00 | 0.00 | 0.00 | 33 | 1008.6 |
| 20260503210541 | 57 | 315 | 15.0 | 28.0 | 0.00 | 0.00 | 0.00 | 33 | 1008.5 |
| 20260503205541 | 57 | 279 | 8.0 | 20.0 | 0.00 | 0.00 | 0.00 | 34 | 1008.3 |
| 20260503205041 | 57 | 321 | 8.0 | 20.0 | 0.00 | 0.00 | 0.00 | 35 | 1008.4 |
| 20260503204556 | 57 | 301 | 9.0 | 21.0 | 0.00 | 0.00 | 0.00 | 35 | 1008.4 |
| 20260503204048 | 57 | 336 | 10.0 | 21.0 | 0.00 | 0.00 | 0.00 | 37 | 1008.5 |
| 20260503203542 | 56 | 283 | 12.0 | 21.0 | 0.00 | 0.00 | 0.00 | 36 | 1008.6 |
| 20260503203104 | 57 | 288 | 11.0 | 20.0 | 0.00 | 0.00 | 0.00 | 37 | 1008.3 |
| 20260503202543 | 57 | 323 | 8.0 | 24.0 | 0.00 | 0.00 | 0.00 | 37 | 1008.4 |
| 20260503202042 | 56 | 355 | 9.0 | 24.0 | 0.00 | 0.00 | 0.00 | 37 | 1008.4 |
| 20260503201554 | 56 | 331 | 8.0 | 23.0 | 0.00 | 0.00 | 0.00 | 38 | 1008.3 |
| 20260503201041 | 56 | 316 | 8.0 | 23.0 | 0.00 | 0.00 | 0.00 | 37 | 1008.6 |
| 20260503200547 | 57 | 321 | 2.0 | 14.0 | 0.00 | 0.00 | 0.00 | 37 | 1008.6 |
| 20260503200056 | 56 | 306 | 5.0 | 16.0 | 0.00 | 0.00 | 0.00 | 37 | 1008.6 |
| 20260503195542 | 56 | 292 | 7.0 | 16.0 | 0.00 | 0.00 | 0.00 | 38 | 1008.6 |
| 20260503195041 | 55 | 352 | 9.0 | 16.0 | 0.00 | 0.00 | 0.00 | 38 | 1008.6 |
| 20260503194551 | 55 | 275 | 6.0 | 14.0 | 0.00 | 0.00 | 0.00 | 41 | 1008.7 |
| 20260503194041 | 55 | 303 | 6.0 | 15.0 | 0.00 | 0.00 | 0.00 | 40 | 1008.7 |
| 20260503193542 | 55 | 30 | 7.0 | 15.0 | 0.00 | 0.00 | 0.00 | 40 | 1008.8 |
| 20260503193059 | 55 | 348 | 5.0 | 24.0 | 0.00 | 0.00 | 0.00 | 40 | 1008.8 |
| 20260503192542 | 54 | 315 | 11.0 | 24.0 | 0.00 | 0.00 | 0.00 | 41 | 1008.9 |
| 20260503192043 | 54 | 294 | 8.0 | 21.0 | 0.00 | 0.00 | 0.00 | 41 | 1008.9 |
| 20260503191550 | 54 | 323 | 13.0 | 25.0 | 0.00 | 0.00 | 0.00 | 41 | 1008.8 |
| 20260503191040 | 54 | 309 | 14.0 | 25.0 | 0.00 | 0.00 | 0.00 | 40 | 1008.8 |
| 20260503190543 | 54 | 278 | 9.0 | 19.0 | 0.00 | 0.00 | 0.00 | 41 | 1008.9 |
| 20260503190054 | 54 | 319 | 9.0 | 19.0 | 0.00 | 0.00 | 0.00 | 41 | 1009.0 |
| 20260503185539 | 53 | 265 | 8.0 | 24.0 | 0.00 | 0.00 | 0.00 | 41 | 1008.9 |
| 20260503185042 | 53 | 341 | 11.0 | 24.0 | 0.00 | 0.00 | 0.00 | 39 | 1008.9 |
| 20260503184604 | 54 | 299 | 14.0 | 23.0 | 0.00 | 0.00 | 0.00 | 39 | 1008.9 |
| 20260503184041 | 55 | 322 | 10.0 | 23.0 | 0.00 | 0.00 | 0.00 | 40 | 1008.9 |
| 20260503183543 | 54 | 298 | 7.0 | 28.0 | 0.00 | 0.00 | 0.00 | 41 | 1008.9 |
| 20260503183057 | 54 | 291 | 8.0 | 28.0 | 0.00 | 0.00 | 0.00 | 41 | 1008.9 |
| 20260503182540 | 54 | 269 | 13.0 | 23.0 | 0.00 | 0.00 | 0.00 | 41 | 1008.9 |
| 20260503182041 | 54 | 294 | 12.0 | 23.0 | 0.00 | 0.00 | 0.00 | 39 | 1008.8 |
| 20260503181601 | 55 | 323 | 12.0 | 22.0 | 0.00 | 0.00 | 0.00 | 39 | 1008.8 |
| 20260503181043 | 55 | 291 | 12.0 | 22.0 | 0.00 | 0.00 | 0.00 | 38 | 1008.7 |
| 20260503180541 | 55 | 317 | 9.0 | 22.0 | 0.00 | 0.00 | 0.00 | 37 | 1008.6 |
| 20260503180047 | 55 | 280 | 10.0 | 20.0 | 0.00 | 0.00 | 0.00 | 38 | 1008.8 |
| 20260503175545 | 54 | 288 | 9.0 | 20.0 | 0.00 | 0.00 | 0.00 | 40 | 1008.7 |
| 20260503175043 | 54 | 286 | 9.0 | 22.0 | 0.00 | 0.00 | 0.00 | 39 | 1008.5 |
| 20260503174547 | 54 | 241 | 11.0 | 22.0 | 0.00 | 0.00 | 0.00 | 38 | 1008.6 |
| 20260503174041 | 53 | 279 | 12.0 | 26.0 | 0.00 | 0.00 | 0.00 | 38 | 1008.7 |
| 20260503173543 | 53 | 285 | 14.0 | 26.0 | 0.00 | 0.00 | 0.00 | 39 | 1008.6 |
| 20260503173059 | 53 | 267 | 5.0 | 24.0 | 0.00 | 0.00 | 0.00 | 39 | 1008.8 |
| 20260503172543 | 53 | 295 | 12.0 | 25.0 | 0.00 | 0.00 | 0.00 | 38 | 1008.9 |
| 20260503172042 | 53 | 314 | 10.0 | 25.0 | 0.00 | 0.00 | 0.00 | 39 | 1008.8 |
| 20260503171553 | 53 | 265 | 10.0 | 26.0 | 0.00 | 0.00 | 0.00 | 40 | 1008.8 |
| 20260503171040 | 53 | 289 | 13.0 | 26.0 | 0.00 | 0.00 | 0.00 | 42 | 1008.9 |
| 20260503170540 | 54 | 248 | 9.0 | 17.0 | 0.00 | 0.00 | 0.00 | 41 | 1008.9 |